"startDT [UTC]","vpos","CH4 [ppm]","stdev(CH4) [ppm]","CO2 [ppm]","stdev(CO2) [ppm]","H2O_reported [%]","stdev(H2O_reported)","CavityPressure [torr]","CavityTemp [C]","OutletValve","CH4_dry [ppm]","CO2_dry [ppm]","DasTemp [C]","EtalonTemp [C]","WarmBoxTemp [C]","MPVPosition","T_ECpre [C]","T_EC1 [C]","T_EC2 [C]","p_inlet [hPa]","p_in [hPa]","p_out [hPa]","T_inlet [C]","RH_inlet [%]","dwpt_inlet [C]","T_vent [C]","RH_vent [%]","dwpt_vent [C]","flow_vent [l min-1]","flow_inlet [l min-1]","dwpt_sample [C]","T_room [C]"
2016-02-26 00:00:00,0.0,1.94685,0.00032,407.589,0.037,0.1114,0.0017,140.000,45.000,31723.72297,1.94898,408.136,37.664,45.069,45.000,0.00,0.09,-272.75,-272.82,-11,521,-951,25.0,2.7,-24.4,25.0,2.8,-24.0,5.73,1.73,-15.8,30.8
2016-02-26 00:01:00,0.0,1.94631,0.00045,407.556,0.032,0.1113,0.0019,139.999,45.000,31723.35829,1.94848,408.104,37.657,45.069,45.000,0.00,0.08,-272.76,-272.82,-12,521,-951,25.0,2.7,-24.4,25.0,2.8,-24.0,5.73,1.95,-15.9,30.8
2016-02-26 00:02:00,0.0,1.94614,0.00031,407.522,0.037,0.1111,0.0013,139.998,45.000,31721.64007,1.94826,408.068,37.677,45.069,45.000,0.00,0.08,-272.76,-272.82,-13,521,-951,25.0,2.7,-24.4,25.0,2.8,-24.0,5.73,2.03,-15.8,30.9
2016-02-26 00:03:00,0.0,1.94606,0.00036,407.525,0.025,0.1109,0.0017,139.998,45.000,31720.10810,1.94816,408.068,37.688,45.069,45.000,0.00,0.08,-272.75,-272.81,-11,521,-951,25.0,2.7,-24.5,25.0,2.8,-24.0,5.73,1.72,-15.8,30.8
2016-02-26 00:04:00,0.0,1.94623,0.00037,407.552,0.025,0.1113,0.0019,140.000,45.000,31721.57554,1.94841,408.098,37.689,45.069,45.000,0.00,0.08,-272.77,-272.81,-12,521,-951,25.0,2.7,-24.5,25.0,2.8,-24.0,5.73,1.99,-15.8,30.8
2016-02-26 00:05:00,0.0,1.94583,0.00038,407.516,0.040,0.1117,0.0015,140.001,45.000,31722.79435,1.94796,408.065,37.701,45.069,45.000,0.00,0.08,-272.76,-272.82,-13,521,-951,25.0,2.7,-24.3,25.0,2.8,-24.0,5.73,2.00,-15.8,30.8
2016-02-26 00:06:00,0.0,1.94618,0.00032,407.532,0.031,0.1117,0.0014,139.999,45.000,31723.15554,1.94833,408.081,37.725,45.068,45.000,0.00,0.08,-272.76,-272.82,-12,521,-951,25.0,2.7,-24.4,25.0,2.8,-24.0,5.73,1.72,-15.9,30.8
2016-02-26 00:07:00,0.0,1.94625,0.00034,407.538,0.029,0.1126,0.0013,139.998,45.000,31721.86603,1.94839,408.090,37.740,45.068,45.000,0.00,0.08,-272.76,-272.82,-11,521,-951,25.0,2.7,-24.3,25.0,2.8,-23.9,5.73,2.02,-15.9,30.8
2016-02-26 00:08:00,0.0,1.94643,0.00032,407.544,0.022,0.1126,0.0019,140.000,45.000,31722.41899,1.94861,408.097,37.750,45.068,45.000,0.00,0.08,-272.76,-272.82,-12,521,-951,25.0,2.7,-24.3,25.0,2.8,-23.9,5.73,1.97,-15.8,30.8
2016-02-26 00:09:00,0.0,1.94619,0.00034,407.529,0.037,0.1121,0.0017,140.000,45.000,31721.19189,1.94834,408.079,37.750,45.068,44.999,0.00,0.08,-272.76,-272.81,-13,521,-951,25.0,2.7,-24.4,25.0,2.8,-23.9,5.73,1.72,-15.8,30.8
2016-02-26 00:10:00,0.0,1.94614,0.00042,407.520,0.038,0.1125,0.0020,139.999,45.000,31721.28579,1.94829,408.072,37.742,45.068,45.000,0.00,0.08,-272.76,-272.81,-11,521,-951,25.0,2.7,-24.3,25.0,2.8,-23.9,5.73,2.05,-15.8,30.8
2016-02-26 00:11:00,0.0,1.94654,0.00025,407.562,0.033,0.1127,0.0015,139.998,45.000,31721.56125,1.94868,408.116,37.717,45.068,45.000,0.00,0.08,-272.76,-272.82,-12,520,-951,25.0,2.7,-24.3,25.0,2.8,-23.9,5.73,1.92,-15.8,30.8
2016-02-26 00:12:00,0.0,1.94700,0.00059,407.604,0.039,0.1131,0.0016,140.002,45.001,31722.65039,1.94917,408.158,37.696,45.069,45.000,0.00,0.08,-272.76,-272.82,-13,521,-951,25.0,2.7,-24.2,25.0,2.8,-23.9,5.73,1.74,-15.8,30.8
2016-02-26 00:13:00,0.0,1.94676,0.00037,407.602,0.036,0.1134,0.0011,139.998,45.001,31723.65953,1.94894,408.159,37.697,45.069,45.000,0.00,0.08,-272.76,-272.82,-12,521,-951,25.0,2.8,-24.1,25.0,2.8,-23.8,5.73,2.07,-15.8,30.8
2016-02-26 00:14:00,0.0,1.94697,0.00032,407.596,0.050,0.1158,0.0017,140.000,45.001,31724.55778,1.94920,408.164,37.698,45.069,45.000,0.00,0.08,-272.76,-272.82,-11,521,-951,25.0,2.8,-24.0,25.0,2.9,-23.7,5.73,1.89,-15.8,30.8
2016-02-26 00:15:00,0.0,1.94728,0.00057,407.628,0.038,0.1162,0.0018,139.999,45.000,31723.30372,1.94949,408.198,37.713,45.069,45.000,0.00,0.08,-272.77,-272.83,-12,520,-951,25.0,2.8,-23.9,25.0,2.9,-23.6,5.73,1.76,-15.8,30.8
2016-02-26 00:16:00,0.0,1.94710,0.00038,407.634,0.036,0.1178,0.0015,139.999,44.999,31723.23841,1.94938,408.214,37.724,45.069,45.000,0.00,0.08,-272.76,-272.82,-13,521,-951,25.0,2.8,-23.8,25.0,2.9,-23.5,5.73,2.09,-15.8,30.8
2016-02-26 00:17:00,0.0,1.94726,0.00041,407.615,0.022,0.1180,0.0017,139.999,44.999,31723.32031,1.94956,408.195,37.729,45.069,45.000,0.00,0.08,-272.76,-272.82,-11,521,-951,25.0,2.9,-23.7,25.0,2.9,-23.4,5.73,1.83,-15.8,30.8
2016-02-26 00:18:00,0.0,1.94730,0.00043,407.633,0.034,0.1185,0.0014,139.999,45.000,31723.21270,1.94953,408.215,37.741,45.069,45.000,0.00,0.08,-272.77,-272.82,-11,520,-951,25.0,2.9,-23.7,25.0,2.9,-23.4,5.73,1.80,-15.8,30.8
2016-02-26 00:19:00,0.0,1.94722,0.00040,407.636,0.030,0.1198,0.0016,139.999,45.001,31725.00914,1.94954,408.223,37.724,45.069,45.000,0.00,0.08,-272.76,-272.82,-13,521,-951,25.0,2.9,-23.6,25.0,3.0,-23.3,5.73,2.09,-15.8,30.9
2016-02-26 00:20:00,0.0,1.94719,0.00035,407.638,0.029,0.1207,0.0012,140.000,45.002,31724.75459,1.94949,408.231,37.729,45.069,45.000,0.00,0.08,-272.75,-272.82,-12,521,-951,25.0,2.9,-23.5,25.0,3.0,-23.2,5.73,1.79,-15.8,30.9
2016-02-26 00:21:00,0.0,1.94728,0.00043,407.607,0.035,0.1210,0.0017,139.999,45.000,31723.25164,1.94960,408.201,37.735,45.069,45.000,0.00,0.08,-272.76,-272.82,-11,521,-951,25.0,2.9,-23.5,25.0,3.0,-23.2,5.73,1.84,-15.8,30.8
2016-02-26 00:22:00,0.0,1.94765,0.00083,407.651,0.083,0.1208,0.0016,139.999,45.001,31723.43550,1.94998,408.246,37.730,45.069,45.000,0.00,0.08,-272.76,-272.82,-12,521,-951,25.0,2.9,-23.5,25.0,3.0,-23.1,5.73,2.09,-15.8,30.8
2016-02-26 00:23:00,0.0,1.94720,0.00045,407.604,0.042,0.1210,0.0013,140.000,45.000,31722.45247,1.94952,408.199,37.742,45.069,45.000,0.00,0.08,-272.75,-272.81,-12,521,-951,25.0,2.9,-23.5,25.0,3.0,-23.2,5.73,1.75,-15.9,30.8
2016-02-26 00:24:00,0.0,1.94695,0.00026,407.595,0.035,0.1208,0.0017,140.001,45.000,31724.76299,1.94929,408.189,37.749,45.069,45.000,0.00,0.08,-272.76,-272.82,-11,521,-951,25.0,2.9,-23.5,25.0,3.0,-23.2,5.73,1.90,-15.8,30.8
2016-02-26 00:25:00,0.0,1.94705,0.00030,407.573,0.026,0.1214,0.0014,140.001,45.000,31724.12257,1.94937,408.170,37.750,45.069,45.000,0.00,0.08,-272.76,-272.82,-12,521,-951,25.0,2.9,-23.5,25.0,3.0,-23.1,5.73,2.07,-15.9,30.9
2016-02-26 00:26:00,0.0,1.94701,0.00039,407.584,0.030,0.1202,0.0015,140.000,44.999,31724.60206,1.94933,408.174,37.749,45.069,45.000,0.00,0.08,-272.75,-272.82,-13,521,-951,25.0,2.9,-23.5,25.0,3.0,-23.2,5.73,1.73,-15.8,30.9
2016-02-26 00:27:00,0.0,1.94830,0.00051,407.688,0.069,0.1196,0.0023,140.001,44.999,31725.24305,1.95052,408.272,37.750,45.069,45.000,0.00,0.08,-272.76,-272.82,-12,521,-951,25.0,2.9,-23.6,25.0,3.0,-23.3,5.73,1.95,-15.8,30.9
2016-02-26 00:28:00,0.0,1.94945,0.00030,407.812,0.040,0.1210,0.0013,139.999,44.998,31723.70194,1.95176,408.406,37.750,45.069,45.000,0.00,0.08,-272.76,-272.82,-11,521,-951,25.0,2.9,-23.5,25.0,3.0,-23.2,5.73,2.03,-15.8,30.9
2016-02-26 00:29:00,0.0,1.94939,0.00046,407.810,0.028,0.1232,0.0017,140.003,45.001,31723.07493,1.95175,408.416,37.750,45.069,45.000,0.00,0.08,-272.76,-272.82,-12,521,-951,25.0,2.9,-23.4,25.0,3.0,-23.1,5.73,1.72,-15.8,30.9
2016-02-26 00:30:00,0.0,1.94984,0.00036,407.880,0.035,0.1228,0.0013,139.999,45.002,31723.39286,1.95220,408.482,37.745,45.069,45.000,0.00,0.08,-272.77,-272.82,-13,521,-951,25.0,3.0,-23.3,25.0,3.0,-23.0,5.73,1.99,-15.9,30.9
2016-02-26 00:31:00,0.0,1.94955,0.00034,407.829,0.033,0.1243,0.0019,140.001,45.002,31726.65706,1.95193,408.441,37.750,45.069,45.000,0.00,0.08,-272.77,-272.82,-11,521,-951,25.0,3.0,-23.2,25.0,3.1,-23.0,5.73,1.99,-15.8,30.8
2016-02-26 00:32:00,0.0,1.94985,0.00040,407.836,0.028,0.1253,0.0015,139.997,45.001,31727.10746,1.95224,408.450,37.746,45.069,45.000,0.00,0.08,-272.76,-272.82,-12,521,-951,25.0,3.0,-23.1,25.0,3.1,-22.8,5.73,1.71,-15.8,30.9
2016-02-26 00:33:00,0.0,1.94989,0.00034,407.842,0.027,0.1252,0.0014,140.001,45.000,31727.60853,1.95230,408.457,37.735,45.069,45.000,0.00,0.08,-272.76,-272.81,-13,521,-951,25.0,3.0,-23.2,25.0,3.1,-22.8,5.73,2.04,-15.8,30.9
2016-02-26 00:34:00,0.0,1.94911,0.00084,407.779,0.072,0.1251,0.0017,140.000,45.001,31727.39046,1.95157,408.395,37.716,45.069,45.000,0.00,0.08,-272.76,-272.82,-12,521,-951,25.0,3.0,-23.2,25.0,3.1,-22.8,5.73,1.94,-15.8,30.9
2016-02-26 00:35:00,0.0,1.94959,0.00038,407.816,0.042,0.1241,0.0013,140.000,45.001,31726.53149,1.95195,408.425,37.708,45.069,45.000,0.00,0.08,-272.76,-272.82,-11,521,-951,25.0,3.0,-23.2,25.0,3.1,-22.9,5.73,1.73,-15.8,30.9
2016-02-26 00:36:00,0.0,1.94953,0.00050,407.818,0.043,0.1232,0.0018,140.000,45.001,31727.65181,1.95194,408.427,37.714,45.069,45.001,0.00,0.08,-272.76,-272.81,-13,521,-951,25.0,2.9,-23.3,25.0,3.1,-23.0,5.73,2.07,-15.8,30.9
2016-02-26 00:37:00,0.0,1.94764,0.00074,407.618,0.077,0.1225,0.0021,140.000,45.000,31726.13636,1.95006,408.223,37.714,45.069,45.000,0.00,0.08,-272.75,-272.82,-12,521,-951,25.0,2.9,-23.4,25.0,3.0,-23.1,5.73,1.89,-15.8,30.9
2016-02-26 00:38:00,0.0,1.94700,0.00110,407.570,0.088,0.1204,0.0015,139.999,44.999,31725.04084,1.94922,408.156,37.717,45.069,45.000,0.00,0.08,-272.76,-272.83,-11,521,-951,25.0,2.9,-23.5,25.0,3.0,-23.2,5.73,1.76,-15.8,30.9
2016-02-26 00:39:00,0.0,1.94831,0.00062,407.720,0.063,0.1207,0.0016,139.999,45.000,31724.23394,1.95067,408.314,37.694,45.069,45.000,0.00,0.08,-272.76,-272.82,-12,521,-951,25.0,2.9,-23.5,25.0,3.0,-23.2,5.73,2.09,-15.8,30.9
2016-02-26 00:40:00,0.0,1.94793,0.00071,407.667,0.072,0.1212,0.0016,139.999,45.000,31723.94258,1.95027,408.263,37.688,45.069,45.000,0.00,0.08,-272.75,-272.83,-13,521,-951,25.0,2.9,-23.5,25.0,3.0,-23.2,5.73,1.83,-15.8,30.9
2016-02-26 00:41:00,0.0,1.94676,0.00044,407.559,0.045,0.1204,0.0020,139.999,45.000,31723.89824,1.94911,408.153,37.688,45.069,45.000,0.00,0.08,-272.76,-272.82,-12,521,-951,25.0,2.9,-23.5,25.0,3.0,-23.1,5.73,1.81,-15.8,30.8
2016-02-26 00:42:00,0.0,1.94626,0.00044,407.512,0.041,0.1197,0.0012,139.999,44.999,31722.48442,1.94861,408.101,37.688,45.069,45.000,0.00,0.08,-272.76,-272.82,-11,521,-951,25.0,2.9,-23.5,25.0,3.0,-23.2,5.73,2.10,-15.8,30.9
2016-02-26 00:43:00,0.0,1.94626,0.00055,407.526,0.036,0.1196,0.0015,140.000,44.999,31722.85342,1.94852,408.111,37.688,45.069,45.000,0.00,0.08,-272.76,-272.82,-13,521,-951,25.0,2.9,-23.6,25.0,3.0,-23.2,5.73,1.78,-15.8,30.9
2016-02-26 00:44:00,0.0,1.94659,0.00075,407.567,0.074,0.1198,0.0019,139.999,44.999,31721.03617,1.94887,408.155,37.688,45.069,45.000,0.00,0.08,-272.76,-272.82,-12,521,-951,25.0,2.9,-23.6,25.0,3.0,-23.2,5.73,1.86,-15.8,30.9
2016-02-26 00:45:00,0.0,1.94717,0.00073,407.579,0.068,0.1200,0.0015,139.997,44.999,31719.57741,1.94950,408.169,37.688,45.069,45.000,0.00,0.08,-272.76,-272.82,-11,521,-951,25.0,2.9,-23.5,25.0,3.0,-23.2,5.73,2.09,-15.9,30.9
2016-02-26 00:46:00,0.0,1.94673,0.00032,407.571,0.025,0.1202,0.0018,140.000,45.000,31721.68234,1.94901,408.160,37.687,45.069,45.000,0.00,0.08,-272.75,-272.82,-12,521,-951,25.0,2.9,-23.6,25.0,3.0,-23.2,5.73,1.74,-15.8,30.8
2016-02-26 00:47:00,0.0,1.94739,0.00061,407.625,0.054,0.1193,0.0019,140.000,45.000,31722.09391,1.94965,408.209,37.690,45.069,45.000,0.00,0.08,-272.76,-272.81,-13,521,-951,25.0,2.9,-23.6,25.0,3.0,-23.3,5.73,1.92,-15.8,30.9
2016-02-26 00:48:00,0.0,1.94702,0.00040,407.571,0.030,0.1202,0.0015,139.999,45.000,31723.22280,1.94937,408.163,37.686,45.069,45.000,0.00,0.08,-272.77,-272.82,-12,521,-951,25.0,2.9,-23.6,25.0,3.0,-23.3,5.73,2.05,-15.8,30.9
2016-02-26 00:49:00,0.0,1.94699,0.00052,407.624,0.044,0.1197,0.0009,139.997,45.001,31725.01028,1.94928,408.211,37.688,45.069,45.000,0.00,0.08,-272.76,-272.82,-12,521,-951,25.0,2.9,-23.5,25.0,3.0,-23.2,5.73,1.72,-15.8,30.9
2016-02-26 00:50:00,0.0,1.94815,0.00099,407.719,0.091,0.1210,0.0022,139.999,44.999,31724.37415,1.95039,408.310,37.690,45.069,45.000,0.00,0.08,-272.76,-272.81,-13,521,-951,25.0,2.9,-23.5,25.0,3.0,-23.2,5.73,1.98,-15.8,30.9
2016-02-26 00:51:00,0.0,1.94769,0.00064,407.655,0.064,0.1225,0.0015,140.000,44.999,31723.43201,1.95009,408.260,37.722,45.069,45.000,0.00,0.08,-272.76,-272.82,-12,521,-951,25.0,2.9,-23.4,25.0,3.0,-23.1,5.73,2.01,-15.8,30.9
2016-02-26 00:52:00,0.0,1.94752,0.00053,407.641,0.044,0.1223,0.0013,140.000,44.999,31724.39766,1.94986,408.242,37.749,45.069,45.000,0.00,0.08,-272.75,-272.82,-11,521,-951,25.0,2.9,-23.3,25.0,3.0,-23.0,5.73,1.71,-15.8,30.9
2016-02-26 00:53:00,0.0,1.94899,0.00052,407.757,0.044,0.1222,0.0015,139.999,45.000,31723.76873,1.95130,408.355,37.748,45.069,45.000,0.00,0.08,-272.76,-272.81,-12,521,-951,25.0,3.0,-23.3,25.0,3.0,-23.0,5.73,2.04,-15.8,30.9
2016-02-26 00:54:00,0.0,1.94917,0.00045,407.800,0.030,0.1250,0.0019,139.999,45.000,31722.92030,1.95157,408.413,37.705,45.068,45.000,0.00,0.08,-272.76,-272.82,-13,521,-951,25.0,3.0,-23.2,25.0,3.0,-23.0,5.73,1.94,-15.8,30.9
2016-02-26 00:55:00,0.0,1.94915,0.00041,407.808,0.033,0.1268,0.0018,139.999,44.999,31723.89290,1.95159,408.432,37.689,45.069,45.000,0.00,0.08,-272.76,-272.82,-11,521,-951,25.0,3.0,-23.0,25.0,3.1,-22.7,5.73,1.73,-15.8,30.9
2016-02-26 00:56:00,0.0,1.94919,0.00036,407.797,0.042,0.1281,0.0015,139.999,44.999,31723.76975,1.95166,408.427,37.689,45.069,45.000,0.00,0.08,-272.76,-272.82,-12,521,-951,25.1,3.1,-22.9,25.0,3.1,-22.6,5.73,2.07,-15.8,30.9
2016-02-26 00:57:00,0.0,1.94912,0.00044,407.791,0.033,0.1286,0.0017,140.001,45.000,31725.14046,1.95158,408.421,37.688,45.069,45.000,0.00,0.08,-272.75,-272.82,-13,521,-951,25.1,3.1,-22.8,25.0,3.2,-22.5,5.73,1.88,-15.8,30.9
2016-02-26 00:58:00,0.0,1.94896,0.00029,407.764,0.040,0.1296,0.0017,139.999,45.000,31724.05812,1.95146,408.402,37.688,45.069,45.000,0.00,0.08,-272.76,-272.82,-12,521,-951,25.1,3.1,-22.7,25.0,3.2,-22.5,5.73,1.76,-15.8,30.9
2016-02-26 00:59:00,0.0,1.94876,0.00043,407.761,0.019,0.1299,0.0014,139.999,45.001,31725.76053,1.95126,408.399,37.688,45.069,45.000,0.00,0.08,-272.76,-272.82,-11,521,-951,25.0,3.1,-22.7,25.0,3.2,-22.5,5.73,2.09,-15.8,30.9
2016-02-26 01:00:00,0.0,1.94891,0.00038,407.752,0.036,0.1303,0.0016,139.998,45.001,31722.16467,1.95140,408.393,37.691,45.069,45.000,0.00,0.08,-272.75,-272.81,-13,521,-951,25.1,3.1,-22.6,25.0,3.2,-22.4,5.73,1.82,-15.8,30.9
2016-02-26 01:01:00,0.0,1.94891,0.00044,407.767,0.030,0.1320,0.0016,140.000,45.001,31722.27948,1.95147,408.415,37.688,45.069,45.000,0.00,0.08,-272.77,-272.81,-13,521,-951,25.1,3.1,-22.6,25.0,3.2,-22.3,5.73,1.81,-15.8,30.9
2016-02-26 01:02:00,0.0,1.94886,0.00032,407.752,0.029,0.1318,0.0012,139.999,45.001,31720.98811,1.95140,408.400,37.698,45.069,45.000,0.00,0.08,-272.77,-272.81,-12,521,-951,25.0,3.1,-22.6,25.0,3.2,-22.3,5.73,2.09,-15.8,30.9
2016-02-26 01:03:00,0.0,1.94861,0.00042,407.698,0.030,0.1305,0.0015,139.997,45.000,31721.58524,1.95112,408.341,37.720,45.069,45.000,0.00,0.08,-272.75,-272.82,-12,521,-951,25.0,3.1,-22.6,25.0,3.2,-22.4,5.73,1.78,-15.8,30.9
2016-02-26 01:04:00,0.0,1.94830,0.00050,407.696,0.035,0.1318,0.0013,139.999,44.999,31722.61085,1.95085,408.344,37.718,45.069,45.000,0.00,0.08,-272.76,-272.82,-13,521,-951,25.0,3.1,-22.6,25.0,3.2,-22.4,5.73,1.86,-15.8,30.9
2016-02-26 01:05:00,0.0,1.94789,0.00040,407.669,0.030,0.1320,0.0012,140.000,45.005,31728.18118,1.95043,408.318,37.713,45.068,45.000,0.00,0.08,-272.77,-272.83,-12,521,-951,25.0,3.1,-22.6,25.1,3.2,-22.3,5.73,2.09,-15.8,30.9
2016-02-26 01:06:00,0.0,1.94813,0.00035,407.670,0.026,0.1319,0.0022,139.998,45.007,31729.20149,1.95065,408.318,37.703,45.068,45.000,0.00,0.08,-272.75,-272.82,-11,521,-951,25.0,3.2,-22.6,25.1,3.2,-22.3,5.73,1.73,-15.8,30.9
2016-02-26 01:07:00,0.0,1.94780,0.00048,407.650,0.031,0.1325,0.0018,140.001,45.004,31732.87105,1.95034,408.301,37.719,45.069,45.000,0.00,0.08,-272.75,-272.81,-13,521,-951,25.1,3.2,-22.5,25.0,3.2,-22.3,5.73,1.92,-15.8,30.9
2016-02-26 01:08:00,0.0,1.94797,0.00035,407.644,0.033,0.1337,0.0015,140.000,45.003,31731.50788,1.95052,408.300,37.695,45.069,45.000,0.00,0.08,-272.77,-272.82,-13,521,-951,25.1,3.2,-22.5,25.1,3.3,-22.2,5.73,2.05,-15.8,30.9
2016-02-26 01:09:00,0.0,1.94761,0.00044,407.647,0.024,0.1335,0.0018,140.001,45.000,31731.00151,1.95023,408.303,37.690,45.069,45.000,0.00,0.08,-272.76,-272.82,-11,521,-951,25.1,3.2,-22.4,25.1,3.3,-22.2,5.73,1.72,-15.8,30.9
2016-02-26 01:10:00,0.0,1.94749,0.00047,407.653,0.038,0.1334,0.0018,139.999,44.999,31731.70448,1.95003,408.309,37.690,45.069,45.000,0.00,0.08,-272.76,-272.81,-12,521,-951,25.1,3.2,-22.4,25.1,3.2,-22.2,5.73,1.97,-15.8,30.9
2016-02-26 01:11:00,0.0,1.94758,0.00033,407.609,0.025,0.1329,0.0009,140.002,44.999,31730.78699,1.95014,408.261,37.688,45.069,45.000,0.00,0.08,-272.75,-272.82,-13,521,-951,25.1,3.2,-22.5,25.1,3.3,-22.2,5.73,2.01,-15.8,30.9
2016-02-26 01:12:00,0.0,1.94750,0.00031,407.619,0.027,0.1325,0.0015,140.001,44.998,31729.01413,1.95004,408.271,37.685,45.069,45.000,0.00,0.08,-272.76,-272.82,-12,521,-951,25.1,3.2,-22.5,25.1,3.3,-22.2,5.73,1.71,-15.8,30.9
2016-02-26 01:13:00,0.0,1.94721,0.00036,407.607,0.027,0.1329,0.0011,139.998,44.998,31729.76486,1.94977,408.260,37.680,45.069,45.000,0.00,0.08,-272.76,-272.81,-12,521,-951,25.1,3.2,-22.5,25.1,3.3,-22.2,5.73,2.03,-15.8,30.9
2016-02-26 01:14:00,0.0,1.94743,0.00041,407.627,0.034,0.1333,0.0015,139.998,44.998,31728.01188,1.95000,408.282,37.675,45.069,45.000,0.00,0.08,-272.75,-272.81,-13,521,-951,25.1,3.2,-22.5,25.1,3.3,-22.2,5.73,1.96,-15.8,30.9
2016-02-26 01:15:00,0.0,1.94746,0.00037,407.600,0.035,0.1340,0.0010,140.001,44.998,31728.84932,1.95001,408.258,37.672,45.069,45.000,0.00,0.08,-272.76,-272.82,-13,521,-951,25.1,3.2,-22.5,25.1,3.3,-22.2,5.73,1.72,-15.8,30.9
2016-02-26 01:16:00,0.0,1.94752,0.00038,407.611,0.030,0.1342,0.0012,140.003,44.998,31728.21574,1.95009,408.271,37.677,45.069,45.000,0.00,0.08,-272.77,-272.82,-11,521,-951,25.1,3.2,-22.4,25.1,3.3,-22.1,5.73,2.06,-15.9,30.9
2016-02-26 01:17:00,0.0,1.94737,0.00032,407.593,0.029,0.1352,0.0012,139.999,44.998,31726.19263,1.94995,408.257,37.688,45.069,45.000,0.00,0.08,-272.75,-272.82,-12,521,-951,25.1,3.2,-22.3,25.1,3.3,-22.1,5.73,1.90,-15.8,30.9
2016-02-26 01:18:00,0.0,1.94702,0.00046,407.570,0.034,0.1349,0.0020,140.002,44.998,31728.43303,1.94963,408.233,37.688,45.069,45.000,0.00,0.08,-272.76,-272.82,-13,521,-951,25.1,3.2,-22.3,25.1,3.3,-22.1,5.73,1.74,-15.9,30.9
2016-02-26 01:19:00,0.0,1.94724,0.00033,407.575,0.034,0.1354,0.0016,139.999,44.998,31727.30155,1.94981,408.241,37.690,45.069,45.000,0.00,0.08,-272.77,-272.83,-12,521,-951,25.1,3.2,-22.3,25.1,3.3,-22.0,5.73,2.09,-15.9,30.9
2016-02-26 01:20:00,0.0,1.94689,0.00082,407.539,0.055,0.1356,0.0017,139.998,44.999,31725.66876,1.94956,408.207,37.689,45.069,45.000,0.00,0.08,-272.75,-272.82,-12,521,-951,25.1,3.2,-22.3,25.1,3.3,-22.0,5.73,1.84,-15.9,30.9
2016-02-26 01:21:00,0.0,1.94695,0.00045,407.553,0.067,0.1339,0.0019,140.000,44.999,31726.53022,1.94947,408.209,37.689,45.069,45.000,0.00,0.08,-272.76,-272.81,-13,521,-951,25.1,3.2,-22.4,25.1,3.3,-22.1,5.73,1.79,-15.9,30.9
2016-02-26 01:22:00,0.0,1.94706,0.00038,407.549,0.048,0.1342,0.0018,140.001,45.000,31727.19173,1.94966,408.210,37.689,45.069,45.000,0.00,0.08,-272.77,-272.83,-12,521,-951,25.1,3.2,-22.4,25.1,3.3,-22.1,5.73,2.10,-15.9,31.0
2016-02-26 01:23:00,0.0,1.94620,0.00046,407.447,0.045,0.1342,0.0025,139.999,44.999,31727.20376,1.94877,408.106,37.694,45.069,45.000,0.00,0.08,-272.76,-272.82,-11,521,-951,25.1,3.2,-22.4,25.1,3.3,-22.1,5.73,1.79,-15.8,31.0
2016-02-26 01:24:00,0.0,1.94657,0.00058,407.501,0.055,0.1326,0.0015,139.999,45.000,31727.26074,1.94911,408.154,37.715,45.069,45.000,0.00,0.08,-272.76,-272.81,-13,521,-951,25.1,3.2,-22.5,25.1,3.3,-22.1,5.73,1.85,-15.9,31.0
2016-02-26 01:25:00,0.0,1.94654,0.00049,407.504,0.043,0.1324,0.0019,139.999,45.001,31727.85751,1.94912,408.155,37.733,45.069,45.000,0.00,0.08,-272.76,-272.82,-13,521,-951,25.1,3.2,-22.5,25.1,3.3,-22.2,5.73,2.08,-15.9,31.0
2016-02-26 01:26:00,0.0,1.94656,0.00039,407.528,0.050,0.1320,0.0019,140.000,45.001,31727.59524,1.94909,408.175,37.729,45.069,45.000,0.00,0.08,-272.76,-272.82,-11,521,-951,25.1,3.1,-22.6,25.1,3.2,-22.2,5.73,1.74,-15.9,31.0
2016-02-26 01:27:00,0.0,1.94653,0.00056,407.487,0.037,0.1317,0.0015,140.000,45.000,31727.85703,1.94903,408.134,37.743,45.069,45.000,0.00,0.08,-272.76,-272.81,-12,521,-951,25.1,3.1,-22.6,25.1,3.2,-22.3,5.73,1.93,-15.9,31.0
2016-02-26 01:28:00,0.0,1.94689,0.00031,407.513,0.030,0.1317,0.0011,140.000,45.000,31729.74178,1.94943,408.159,37.746,45.069,45.000,0.00,0.08,-272.76,-272.81,-13,521,-951,25.1,3.1,-22.6,25.1,3.2,-22.4,5.73,2.03,-15.9,31.0
2016-02-26 01:29:00,0.0,1.94683,0.00044,407.542,0.031,0.1320,0.0018,140.003,45.000,31731.39595,1.94937,408.191,37.750,45.069,45.000,0.00,0.08,-272.76,-272.82,-12,521,-951,25.1,3.2,-22.5,25.1,3.2,-22.3,5.73,1.71,-15.9,31.0
2016-02-26 01:30:00,0.0,1.94727,0.00042,407.570,0.029,0.1340,0.0014,139.999,45.000,31729.67224,1.94984,408.228,37.750,45.069,45.000,0.00,0.08,-272.76,-272.81,-11,521,-951,25.1,3.2,-22.4,25.1,3.3,-22.2,5.73,2.02,-15.9,31.0
2016-02-26 01:31:00,0.0,1.94725,0.00026,407.538,0.034,0.1345,0.0021,140.001,45.000,31731.19334,1.94984,408.199,37.765,45.069,45.000,0.00,0.08,-272.75,-272.83,-13,521,-951,25.1,3.2,-22.3,25.1,3.3,-22.2,5.73,1.94,-15.9,31.0
2016-02-26 01:32:00,0.0,1.94734,0.00036,407.543,0.025,0.1352,0.0016,139.999,45.000,31730.20730,1.94995,408.208,37.809,45.069,45.000,0.00,0.08,-272.76,-272.82,-12,521,-951,25.1,3.2,-22.3,25.1,3.3,-22.1,5.73,1.73,-15.9,31.0
2016-02-26 01:33:00,0.0,1.94715,0.00028,407.551,0.033,0.1352,0.0013,139.998,45.000,31731.83202,1.94975,408.215,37.812,45.069,45.000,0.00,0.08,-272.76,-272.82,-11,521,-951,25.1,3.2,-22.2,25.1,3.3,-22.1,5.73,2.09,-15.9,31.0
2016-02-26 01:34:00,0.0,1.94580,0.00062,407.435,0.044,0.1353,0.0020,139.997,45.000,31732.85295,1.94843,408.102,37.809,45.069,45.000,0.00,0.08,-272.75,-272.82,-13,521,-951,25.2,3.2,-22.2,25.2,3.3,-21.9,5.73,1.82,-15.9,31.0
2016-02-26 01:35:00,0.0,1.94637,0.00049,407.469,0.037,0.1358,0.0016,140.000,45.000,31733.30237,1.94895,408.135,37.813,45.069,45.000,0.00,0.08,-272.76,-272.82,-13,521,-951,25.1,3.2,-22.2,25.2,3.3,-21.9,5.73,1.83,-15.9,31.0
2016-02-26 01:36:00,0.0,1.94624,0.00049,407.441,0.040,0.1361,0.0014,139.999,45.000,31733.20443,1.94887,408.111,37.811,45.069,45.000,0.00,0.08,-272.77,-272.83,-11,521,-951,25.1,3.3,-22.1,25.2,3.3,-21.9,5.73,2.08,-15.9,31.1
2016-02-26 01:37:00,0.0,1.94607,0.00048,407.458,0.030,0.1372,0.0015,140.001,45.000,31734.50228,1.94867,408.131,37.813,45.069,45.000,0.00,0.08,-272.75,-272.82,-12,521,-951,25.2,3.2,-22.1,25.2,3.3,-21.9,5.73,1.73,-15.9,31.0
2016-02-26 01:38:00,0.0,1.94663,0.00049,407.493,0.029,0.1377,0.0018,139.999,45.000,31735.17407,1.94929,408.170,37.816,45.069,45.000,0.00,0.08,-272.76,-272.82,-13,521,-951,25.2,3.2,-22.2,25.2,3.3,-21.9,5.73,1.96,-15.8,31.1
2016-02-26 01:39:00,0.0,1.94678,0.00027,407.481,0.025,0.1376,0.0020,140.001,45.000,31737.36401,1.94943,408.156,37.829,45.069,45.000,0.00,0.08,-272.76,-272.82,-12,522,-951,25.2,3.3,-22.0,25.2,3.3,-21.8,5.73,2.00,-15.9,31.1
2016-02-26 01:40:00,0.0,1.94645,0.00030,407.478,0.042,0.1376,0.0020,140.002,44.999,31737.72992,1.94910,408.154,37.823,45.069,45.000,0.00,0.08,-272.76,-272.82,-12,521,-951,25.2,3.3,-22.1,25.2,3.3,-21.8,5.73,1.71,-15.8,31.1
2016-02-26 01:41:00,0.0,1.94658,0.00036,407.495,0.025,0.1380,0.0020,140.002,45.000,31737.09635,1.94923,408.172,37.826,45.069,45.000,0.00,0.08,-272.76,-272.81,-13,522,-951,25.2,3.2,-22.1,25.2,3.3,-21.8,5.73,2.07,-15.9,31.1
2016-02-26 01:42:00,0.0,1.94668,0.00034,407.482,0.029,0.1377,0.0018,139.998,45.000,31737.02528,1.94931,408.159,37.816,45.069,45.000,0.00,0.08,-272.76,-272.82,-12,522,-951,25.2,3.3,-22.1,25.2,3.3,-21.8,5.73,1.85,-15.8,31.1
2016-02-26 01:43:00,0.0,1.94651,0.00033,407.500,0.034,0.1389,0.0018,140.002,45.000,31738.77931,1.94919,408.181,37.815,45.069,45.000,0.00,0.08,-272.75,-272.82,-12,521,-951,25.2,3.3,-22.0,25.2,3.3,-21.8,5.73,1.80,-15.8,31.1
2016-02-26 01:44:00,0.0,1.94669,0.00031,407.485,0.034,0.1398,0.0018,139.998,45.000,31736.94120,1.94936,408.173,37.821,45.069,45.000,0.00,0.08,-272.75,-272.81,-13,521,-951,25.2,3.3,-22.0,25.2,3.4,-21.7,5.73,2.09,-15.8,31.1